Location: Emory University Observatory
(33.7903°N, 84.3267°W)
Time: 22:38:32
(UTC-04:00)

Vanguard 2 Rocket - Visible Passes

Search period start: 21 October 2017 00:00
Search period end: 31 October 2017 00:00
Orbit: 555 x 3327 km, 32.9° (Epoch: 21 October)

Date Brightness Start Highest point End Pass type
(mag) Time Alt. Az. Time Alt. Az. Time Alt. Az.
21 Oct 10.1 19:25:52 10° W 19:36:55 39° SSW 19:53:21 10° SSE visible
21 Oct 11.0 21:45:41 10° WSW 21:53:42 15° SW 22:02:47 10° S visible
22 Oct 10.8 20:42:41 10° WSW 20:52:33 21° SW 21:04:58 10° S visible
23 Oct 10.5 19:41:35 10° W 19:51:32 28° SSW 20:05:25 10° SSE visible
24 Oct 11.1 21:02:08 10° SW 21:07:16 12° SW 21:13:00 10° SSW visible
25 Oct 10.9 19:58:34 10° WSW 20:06:15 18° SSW 20:15:58 10° S visible
26 Oct 10.7 18:57:29 10° WSW 19:05:29 23° SSW 19:16:41 10° SSE visible
28 Oct 11.0 19:15:25 10° SW 19:20:21 13° SSW 19:26:17 10° S visible
